This is the latest recevied weather packets stored in our database for station/object N9CQL. If no packets are shown the sender has not sent any weather packets the latest 10 day(s).
| Time | Temp. | Humidity | Pressure | Rain* | Wind** | Luminosity | Snow |
|---|---|---|---|---|---|---|---|
| 1777661052 | 10° C | 67% | 1015.9 hPa | 0 mm | - | 232 W/m² | - |
| 1777660747 | 10° C | 67% | 1015.9 hPa | 0 mm | - | 277 W/m² | - |
| 1777660445 | 10° C | 67% | 1015.8 hPa | 0 mm | - | 252 W/m² | - |
| 1777660141 | 10° C | 67% | 1015.7 hPa | 0 mm | - | 217 W/m² | - |
| 1777659838 | 10° C | 69% | 1015.6 hPa | 0 mm | - | 248 W/m² | - |
| 1777659535 | 9.44° C | 69% | 1015.7 hPa | 0 mm | - | 141 W/m² | - |
| 1777659232 | 10° C | 69% | 1015.7 hPa | 0 mm | - | 105 W/m² | - |
| 1777658929 | 10.56° C | 67% | 1015.6 hPa | 0 mm | - | 108 W/m² | - |
| 1777658625 | 10° C | 63% | 1015.6 hPa | 0 mm | - | 207 W/m² | - |
| 1777658323 | 10.56° C | 61% | 1015.4 hPa | 0 mm | - | 262 W/m² | - |
| 1777658019 | 10° C | 63% | 1015.5 hPa | 0 mm | - | 212 W/m² | - |
| 1777657716 | 10° C | 60% | 1015.7 hPa | 0 mm | - | 183 W/m² | - |
| 1777657413 | 9.44° C | 55% | 1015.5 hPa | 0 mm | - | 181 W/m² | - |
| 1777657111 | 9.44° C | 53% | 1015.7 hPa | 0 mm | - | 150 W/m² | - |
| 1777656809 | 9.44° C | 54% | 1015.7 hPa | 0 mm | - | 135 W/m² | - |
| 1777656504 | 9.44° C | 53% | 1015.4 hPa | 0 mm | - | 147 W/m² | - |
| 1777656199 | 9.44° C | 52% | 1015.4 hPa | 0 mm | - | 130 W/m² | - |
| 1777655895 | 9.44° C | 55% | 1015.2 hPa | 0 mm | - | 109 W/m² | - |
| 1777655600 | 9.44° C | 53% | 1015.3 hPa | 0 mm | - | 100 W/m² | - |
| 1777655289 | 10° C | 52% | 1015.2 hPa | 0 mm | - | 111 W/m² | - |
| 1777654986 | 10° C | 53% | 1015.3 hPa | 0 mm | - | 111 W/m² | - |
| 1777654683 | 10° C | 54% | 1015.3 hPa | 0 mm | - | 200 W/m² | - |
| 1777654381 | 10° C | 54% | 1015.2 hPa | 0 mm | - | 194 W/m² | - |
| 1777654078 | 10° C | 53% | 1015.4 hPa | 0 mm | - | 210 W/m² | - |
| 1777653775 | 10.56° C | 52% | 1015.3 hPa | 0 mm | - | 609 W/m² | - |
* Rain latest hour (hover to see other rain measurements)
** Current wind speed in m/s (hover to see current wind gust speed)